AAL4130 MMHO-KPHX

Flight info

Callsign AAL4130
Flight time 0h 50m
Altitude 34000
Route BOPAP1D BOPAP J92 TUS DCT HOTTT PINNG1
Aircraft A320/M-SDE3FGHIRWY/LB1

Departure

Time 2026-04-26 01:57
Airport General Ignacio L. Pesqueira International Airport (MMHO)

Arrival

Time 2026-04-26 02:47
Airport Phoenix Sky Harbor International Airport (KPHX)
Time Latitude Longitude Altitude Speed Heading
2026-04-26 01:19 29.09047 -111.05270 643 ft 0 kts 149°
2026-04-26 01:46 29.09066 -111.05284 645 ft 4 kts 143°
2026-04-26 01:46 29.09086 -111.05305 643 ft 4 kts 125°
2026-04-26 01:46 29.09095 -111.05330 643 ft 4 kts 70°
2026-04-26 01:47 29.09091 -111.05340 645 ft 1 kts 58°
2026-04-26 01:50 29.09092 -111.05338 645 ft 1 kts 59°
2026-04-26 01:51 29.09104 -111.05314 643 ft 9 kts 59°
2026-04-26 01:51 29.09145 -111.05236 642 ft 12 kts 59°
2026-04-26 01:51 29.09192 -111.05148 643 ft 14 kts 58°
2026-04-26 01:51 29.09245 -111.05050 643 ft 14 kts 58°
2026-04-26 01:52 29.09299 -111.04948 644 ft 16 kts 59°
2026-04-26 01:52 29.09359 -111.04833 644 ft 18 kts 59°
2026-04-26 01:52 29.09369 -111.04702 645 ft 14 kts 93°
2026-04-26 01:52 29.09399 -111.04602 646 ft 15 kts 45°
2026-04-26 01:53 29.09469 -111.04509 646 ft 16 kts 54°
2026-04-26 01:53 29.09536 -111.04398 646 ft 18 kts 55°
2026-04-26 01:53 29.09607 -111.04284 647 ft 16 kts 53°
2026-04-26 01:53 29.09659 -111.04203 648 ft 12 kts 53°
2026-04-26 01:54 29.09710 -111.04152 648 ft 10 kts
2026-04-26 01:54 29.09773 -111.04184 648 ft 11 kts 327°
2026-04-26 01:54 29.09841 -111.04234 650 ft 9 kts 327°
2026-04-26 01:54 29.09851 -111.04256 647 ft 4 kts 257°
2026-04-26 01:55 29.09841 -111.04301 646 ft 8 kts 235°
2026-04-26 01:55 29.09832 -111.04316 646 ft 0 kts 236°
2026-04-26 01:56 29.09811 -111.04352 645 ft 20 kts 236°
2026-04-26 01:56 29.09608 -111.04722 640 ft 88 kts 239°
2026-04-26 01:56 29.09198 -111.05505 638 ft 140 kts 239°
2026-04-26 01:57 29.08677 -111.06496 1105 ft 144 kts 239°
2026-04-26 01:57 29.08150 -111.07482 1713 ft 146 kts 238°
2026-04-26 01:57 29.07629 -111.08458 2334 ft 145 kts 237°
2026-04-26 01:57 29.07076 -111.09496 2644 ft 163 kts 238°
2026-04-26 01:58 29.06446 -111.10677 2852 ft 186 kts 239°
2026-04-26 01:58 29.05726 -111.12023 3101 ft 210 kts 239°
2026-04-26 01:58 29.04921 -111.13531 3467 ft 234 kts 239°
2026-04-26 01:58 29.04103 -111.15239 3954 ft 253 kts 251°
2026-04-26 01:59 29.03942 -111.15868 4160 ft 257 kts 258°
2026-04-26 01:59 29.07843 -111.21816 7381 ft 280 kts 336°
2026-04-26 02:00 29.09686 -111.22592 7819 ft 284 kts 336°
2026-04-26 02:00 29.11546 -111.23368 7946 ft 283 kts 336°
2026-04-26 02:00 29.13395 -111.24143 7984 ft 283 kts 336°
2026-04-26 02:00 29.15241 -111.24922 7985 ft 283 kts 336°
2026-04-26 02:01 29.17133 -111.25548 7983 ft 286 kts 348°
2026-04-26 02:01 29.19119 -111.25574 8118 ft 295 kts
2026-04-26 02:01 29.21138 -111.25050 8944 ft 298 kts
2026-04-26 02:01 29.23169 -111.24497 9782 ft 301 kts
2026-04-26 02:02 29.25248 -111.23950 10283 ft 315 kts
2026-04-26 02:02 29.26702 -111.23575 10428 ft 330 kts
2026-04-26 02:02 29.28990 -111.22984 10885 ft 342 kts
2026-04-26 02:02 29.31326 -111.22368 11532 ft 347 kts
2026-04-26 02:03 29.33694 -111.21732 12228 ft 350 kts
2026-04-26 02:03 29.36080 -111.21084 12917 ft 354 kts
2026-04-26 02:03 29.38496 -111.20427 13605 ft 358 kts
2026-04-26 02:03 29.40937 -111.19768 14183 ft 363 kts
2026-04-26 02:04 29.43411 -111.19103 14748 ft 368 kts
2026-04-26 02:04 29.45895 -111.18433 15289 ft 374 kts
2026-04-26 02:04 29.48478 -111.17735 15859 ft 379 kts
2026-04-26 02:04 29.51030 -111.17049 16387 ft 385 kts
2026-04-26 02:05 29.53656 -111.16345 16933 ft 390 kts
2026-04-26 02:05 29.56319 -111.15627 17474 ft 396 kts
2026-04-26 02:05 29.59023 -111.14894 18024 ft 402 kts
2026-04-26 02:05 29.61765 -111.14151 18514 ft 408 kts
2026-04-26 02:06 29.64542 -111.13398 19040 ft 412 kts
2026-04-26 02:06 29.67349 -111.12639 19575 ft 416 kts
2026-04-26 02:06 29.70182 -111.11874 20137 ft 420 kts
2026-04-26 02:06 29.73041 -111.11098 20683 ft 424 kts
2026-04-26 02:07 29.75926 -111.10313 21220 ft 428 kts
2026-04-26 02:07 29.78841 -111.09521 21758 ft 431 kts
2026-04-26 02:07 29.81773 -111.08726 22297 ft 435 kts
2026-04-26 02:07 29.84735 -111.07924 22839 ft 438 kts
2026-04-26 02:08 29.87702 -111.07120 23372 ft 441 kts
2026-04-26 02:08 29.90706 -111.06306 23826 ft 444 kts
2026-04-26 02:08 29.93723 -111.05485 24262 ft 447 kts
2026-04-26 02:08 29.96725 -111.04667 24686 ft 450 kts
2026-04-26 02:09 29.99780 -111.03832 25110 ft 453 kts
2026-04-26 02:09 30.02868 -111.02988 25518 ft 456 kts
2026-04-26 02:09 30.05969 -111.02143 25915 ft 458 kts
2026-04-26 02:09 30.09091 -111.01295 26311 ft 462 kts
2026-04-26 02:10 30.12232 -111.00651 26691 ft 457 kts 357°
2026-04-26 02:10 30.15391 -111.00451 27074 ft 455 kts 353°
2026-04-26 02:10 30.18572 -111.00313 27447 ft 458 kts 353°
2026-04-26 02:10 30.21725 -111.00178 27807 ft 461 kts 353°
2026-04-26 02:11 30.24980 -111.00035 28180 ft 464 kts 353°
2026-04-26 02:11 30.28219 -110.99890 28555 ft 467 kts 353°
2026-04-26 02:11 30.31443 -110.99744 28906 ft 470 kts 353°
2026-04-26 02:11 30.34733 -110.99593 29260 ft 474 kts 353°
2026-04-26 02:12 30.38039 -110.99443 29612 ft 477 kts 353°
2026-04-26 02:12 30.41366 -110.99294 29956 ft 480 kts 353°
2026-04-26 02:12 30.44716 -110.99144 30251 ft 483 kts 353°
2026-04-26 02:12 30.48093 -110.98990 30555 ft 486 kts 353°
2026-04-26 02:13 30.51479 -110.98836 30861 ft 488 kts 353°
2026-04-26 02:13 30.54869 -110.98678 31254 ft 488 kts 353°
2026-04-26 02:13 30.58260 -110.98512 31699 ft 487 kts 352°
2026-04-26 02:13 30.61651 -110.98340 32124 ft 486 kts 352°
2026-04-26 02:14 30.64985 -110.98172 32556 ft 486 kts 352°
2026-04-26 02:14 30.68365 -110.98003 32947 ft 486 kts 352°
2026-04-26 02:14 30.71750 -110.97833 33399 ft 485 kts 352°
2026-04-26 02:14 30.75113 -110.97665 33764 ft 485 kts 351°
2026-04-26 02:15 30.78480 -110.97497 33848 ft 480 kts 351°
2026-04-26 02:15 30.85078 -110.97172 33851 ft 471 kts 351°
2026-04-26 02:16 30.91631 -110.96883 33854 ft 471 kts 351°
2026-04-26 02:16 30.98188 -110.96600 33857 ft 471 kts 351°
2026-04-26 02:17 31.04692 -110.96313 33859 ft 470 kts 351°
2026-04-26 02:17 31.11226 -110.96017 33887 ft 470 kts 351°
2026-04-26 02:18 31.17772 -110.95713 33914 ft 471 kts 351°
2026-04-26 02:18 31.24333 -110.95403 33945 ft 472 kts 351°
2026-04-26 02:19 31.30886 -110.95102 33972 ft 472 kts 351°
2026-04-26 02:19 31.37448 -110.94805 33993 ft 472 kts 351°
2026-04-26 02:20 31.44017 -110.94509 33998 ft 472 kts 351°
2026-04-26 02:20 31.50570 -110.94213 33985 ft 473 kts 351°
2026-04-26 02:21 31.57148 -110.93910 33959 ft 473 kts 351°
2026-04-26 02:21 31.63736 -110.93603 33926 ft 474 kts 351°
2026-04-26 02:22 31.70333 -110.93292 33895 ft 475 kts 351°
2026-04-26 02:22 31.76946 -110.92989 33851 ft 475 kts 351°
2026-04-26 02:23 31.83557 -110.92689 33870 ft 475 kts 351°
2026-04-26 02:23 31.90168 -110.92379 33883 ft 476 kts 351°
2026-04-26 02:24 31.96897 -110.92077 33501 ft 487 kts 351°
2026-04-26 02:24 32.00244 -110.91929 32821 ft 488 kts 351°
2026-04-26 02:24 32.03666 -110.91771 32259 ft 485 kts 351°
2026-04-26 02:24 32.07028 -110.91614 31752 ft 481 kts 350°
2026-04-26 02:25 32.10265 -110.91788 31265 ft 461 kts 340°
2026-04-26 02:25 32.13356 -110.92491 30784 ft 447 kts 334°
2026-04-26 02:25 32.16372 -110.93307 30292 ft 444 kts 334°
2026-04-26 02:25 32.19376 -110.94124 29801 ft 440 kts 334°
2026-04-26 02:26 32.22349 -110.94932 29279 ft 436 kts 334°
2026-04-26 02:26 32.25296 -110.95733 28808 ft 431 kts 334°
2026-04-26 02:26 32.28215 -110.96528 28322 ft 427 kts 334°
2026-04-26 02:26 32.31090 -110.97308 27934 ft 421 kts 334°
2026-04-26 02:27 32.33935 -110.98076 27533 ft 416 kts 335°
2026-04-26 02:27 32.36740 -110.98834 27135 ft 412 kts 335°
2026-04-26 02:27 32.39504 -110.99580 26860 ft 405 kts 334°
2026-04-26 02:27 32.42245 -111.00326 26439 ft 404 kts 335°
2026-04-26 02:28 32.44977 -111.01074 26083 ft 400 kts 335°
2026-04-26 02:28 32.47679 -111.01814 25695 ft 398 kts 335°
2026-04-26 02:28 32.50376 -111.02554 25291 ft 396 kts 334°
2026-04-26 02:28 32.52937 -111.03575 24886 ft 380 kts 324°
2026-04-26 02:29 32.55175 -111.05040 24738 ft 358 kts 316°
2026-04-26 02:29 32.57239 -111.06594 24458 ft 353 kts 316°
2026-04-26 02:29 32.59308 -111.08142 24093 ft 350 kts 316°
2026-04-26 02:29 32.61368 -111.09681 23734 ft 348 kts 317°
2026-04-26 02:30 32.63415 -111.11213 23350 ft 346 kts 317°
2026-04-26 02:30 32.65435 -111.12729 22885 ft 344 kts 317°
2026-04-26 02:30 32.67453 -111.14246 22449 ft 342 kts 317°
2026-04-26 02:30 32.69463 -111.15758 22011 ft 340 kts 317°
2026-04-26 02:31 32.71459 -111.17259 21589 ft 339 kts 317°
2026-04-26 02:31 32.73408 -111.18798 21161 ft 332 kts 312°
2026-04-26 02:31 32.75068 -111.20621 20733 ft 320 kts 302°
2026-04-26 02:31 32.76394 -111.22699 20322 ft 312 kts 295°
2026-04-26 02:32 32.77595 -111.24845 19905 ft 311 kts 296°
2026-04-26 02:32 32.78793 -111.26975 19495 ft 310 kts 296°
2026-04-26 02:32 32.79993 -111.29102 19091 ft 309 kts 296°
2026-04-26 02:32 32.81178 -111.31200 18694 ft 309 kts 296°
2026-04-26 02:33 32.82374 -111.33316 18291 ft 308 kts 296°
2026-04-26 02:33 32.83568 -111.35428 17872 ft 307 kts 296°
2026-04-26 02:33 32.84758 -111.37535 17456 ft 306 kts 297°
2026-04-26 02:33 32.85942 -111.39636 17024 ft 305 kts 297°
2026-04-26 02:34 32.87125 -111.41739 16591 ft 305 kts 297°
2026-04-26 02:34 32.88300 -111.43830 16198 ft 304 kts 297°
2026-04-26 02:34 32.89472 -111.45915 15832 ft 302 kts 297°
2026-04-26 02:34 32.90777 -111.47892 15475 ft 306 kts 306°
2026-04-26 02:35 32.92173 -111.49776 15179 ft 301 kts 303°
2026-04-26 02:35 32.93515 -111.51675 14829 ft 299 kts 303°
2026-04-26 02:35 32.94917 -111.53514 14463 ft 304 kts 314°
2026-04-26 02:35 32.96763 -111.54765 14050 ft 319 kts 337°
2026-04-26 02:36 32.98981 -111.55273 13606 ft 326 kts 346°
2026-04-26 02:36 33.01230 -111.55662 13199 ft 326 kts 346°
2026-04-26 02:36 33.03458 -111.56030 13000 ft 319 kts 347°
2026-04-26 02:36 33.05627 -111.56383 12861 ft 309 kts 347°
2026-04-26 02:37 33.07676 -111.56926 12686 ft 295 kts 334°
2026-04-26 02:37 33.09566 -111.57838 12403 ft 291 kts 331°
2026-04-26 02:37 33.11430 -111.58760 12137 ft 288 kts 332°
2026-04-26 02:37 33.13233 -111.59650 12029 ft 280 kts 331°
2026-04-26 02:38 33.15005 -111.60523 11903 ft 271 kts 331°
2026-04-26 02:38 33.16725 -111.61371 11783 ft 264 kts 331°
2026-04-26 02:38 33.18409 -111.62204 11573 ft 260 kts 331°
2026-04-26 02:38 33.20077 -111.63032 11287 ft 260 kts 330°
2026-04-26 02:39 33.21781 -111.63887 10615 ft 271 kts 331°
2026-04-26 02:39 33.23543 -111.64790 9936 ft 277 kts 330°
2026-04-26 02:39 33.25268 -111.65760 9390 ft 275 kts 329°
2026-04-26 02:39 33.26974 -111.66760 8879 ft 272 kts 328°
2026-04-26 02:40 33.28662 -111.67763 8348 ft 270 kts 329°
2026-04-26 02:40 33.30337 -111.68757 7828 ft 268 kts 329°
2026-04-26 02:40 33.32003 -111.69742 7319 ft 266 kts 329°
2026-04-26 02:40 33.33650 -111.70715 6824 ft 264 kts 330°
2026-04-26 02:41 33.35290 -111.71678 6367 ft 260 kts 330°
2026-04-26 02:41 33.36894 -111.72614 6005 ft 253 kts 331°
2026-04-26 02:41 33.38446 -111.73520 5639 ft 244 kts 330°
2026-04-26 02:41 33.39875 -111.74519 5328 ft 231 kts 315°
2026-04-26 02:42 33.40838 -111.75971 5040 ft 217 kts 293°
2026-04-26 02:42 33.41443 -111.77576 4763 ft 207 kts 292°
2026-04-26 02:42 33.42026 -111.79115 4529 ft 197 kts 292°
2026-04-26 02:42 33.42591 -111.80598 4253 ft 194 kts 292°
2026-04-26 02:43 33.42865 -111.83701 3761 ft 185 kts 269°
2026-04-26 02:43 33.42864 -111.85205 3523 ft 176 kts 269°
2026-04-26 02:43 33.42866 -111.86614 3308 ft 161 kts 269°
2026-04-26 02:44 33.42868 -111.87861 3116 ft 146 kts 270°
2026-04-26 02:44 33.42870 -111.89057 2932 ft 140 kts 270°
2026-04-26 02:44 33.42872 -111.90214 2748 ft 138 kts 269°
2026-04-26 02:44 33.42874 -111.91370 2571 ft 139 kts 270°
2026-04-26 02:45 33.42875 -111.92522 2391 ft 137 kts 270°
2026-04-26 02:45 33.42876 -111.93662 2204 ft 139 kts 273°
2026-04-26 02:45 33.42879 -111.94825 2048 ft 138 kts 270°
2026-04-26 02:45 33.42880 -111.95974 1863 ft 138 kts 271°
2026-04-26 02:46 33.42881 -111.97126 1684 ft 138 kts 270°
2026-04-26 02:46 33.42882 -111.98273 1493 ft 140 kts 272°
2026-04-26 02:46 33.42883 -111.99418 1301 ft 136 kts 272°
2026-04-26 02:46 33.42884 -112.00561 1130 ft 136 kts 271°
2026-04-26 02:47 33.42885 -112.01512 1126 ft 90 kts 270°
2026-04-26 02:47 33.42886 -112.02052 1123 ft 40 kts 270°
2026-04-26 02:47 33.42886 -112.02224 1123 ft 14 kts 270°
2026-04-26 02:47 33.42887 -112.02349 1123 ft 16 kts 270°
2026-04-26 02:48 33.42909 -112.02482 1118 ft 17 kts 297°
2026-04-26 02:48 33.42950 -112.02518 1118 ft 6 kts 353°
2026-04-26 02:48 33.42951 -112.02518 1119 ft 1 kts 353°
2026-04-26 02:48 33.42986 -112.02545 1121 ft 10 kts 342°
2026-04-26 02:49 33.43009 -112.02548 1121 ft 0 kts 359°
2026-04-26 02:51 33.43012 -112.02548 1121 ft 3 kts 359°
2026-04-26 02:52 33.43072 -112.02549 1117 ft 11 kts 359°
2026-04-26 02:52 33.43152 -112.02550 1121 ft 13 kts 359°
2026-04-26 02:52 33.43179 -112.02550 1121 ft 0 kts 359°
2026-04-26 02:54 33.43182 -112.02550 1118 ft 2 kts 359°
2026-04-26 02:54 33.43204 -112.02548 1117 ft 4 kts 15°
2026-04-26 02:55 33.43216 -112.02511 1119 ft 6 kts 84°
2026-04-26 02:55 33.43218 -112.02451 1125 ft 8 kts 90°
2026-04-26 02:55 33.43218 -112.02373 1125 ft 11 kts 90°
2026-04-26 02:55 33.43218 -112.02277 1125 ft 12 kts 91°
2026-04-26 02:56 33.43215 -112.02165 1123 ft 15 kts 91°
2026-04-26 02:56 33.43213 -112.02057 1118 ft 11 kts 90°
2026-04-26 02:56 33.43213 -112.01952 1124 ft 14 kts 90°
2026-04-26 02:56 33.43214 -112.01825 1117 ft 16 kts 89°
2026-04-26 02:57 33.43215 -112.01717 1124 ft 9 kts 89°
2026-04-26 02:57 33.43216 -112.01631 1122 ft 11 kts 89°
2026-04-26 02:57 33.43217 -112.01525 1124 ft 14 kts 89°
2026-04-26 02:57 33.43217 -112.01423 1119 ft 12 kts 90°
2026-04-26 02:58 33.43217 -112.01312 1116 ft 14 kts 90°
2026-04-26 02:58 33.43217 -112.01188 1116 ft 16 kts 90°
2026-04-26 02:58 33.43218 -112.01079 1124 ft 10 kts 90°
2026-04-26 02:58 33.43218 -112.00997 1124 ft 7 kts 90°
2026-04-26 02:59 33.43218 -112.00932 1124 ft 9 kts 89°
2026-04-26 02:59 33.43219 -112.00849 1124 ft 11 kts 89°
2026-04-26 02:59 33.43219 -112.00753 1125 ft 12 kts 90°
2026-04-26 02:59 33.43216 -112.00645 1121 ft 12 kts 92°
2026-04-26 03:00 33.43212 -112.00533 1119 ft 15 kts 92°
2026-04-26 03:00 33.43277 -112.00466 1120 ft 15 kts
2026-04-26 03:00 33.43390 -112.00468 1119 ft 18 kts 359°
2026-04-26 03:00 33.43523 -112.00472 1121 ft 20 kts 358°
2026-04-26 03:01 33.43636 -112.00473 1119 ft 12 kts
2026-04-26 03:01 33.43727 -112.00471 1121 ft 14 kts
2026-04-26 03:01 33.43831 -112.00469 1122 ft 13 kts
2026-04-26 03:01 33.43900 -112.00451 1124 ft 9 kts 64°
2026-04-26 03:02 33.43906 -112.00364 1124 ft 11 kts 90°
2026-04-26 03:02 33.43905 -112.00266 1124 ft 13 kts 91°
2026-04-26 03:02 33.43905 -112.00153 1124 ft 15 kts 90°
2026-04-26 03:02 33.43906 -112.00022 1124 ft 17 kts 89°
2026-04-26 03:03 33.43906 -111.99874 1124 ft 16 kts 90°
2026-04-26 03:03 33.43905 -111.99738 1124 ft 11 kts 91°
2026-04-26 03:03 33.43904 -111.99637 1124 ft 13 kts 90°
2026-04-26 03:03 33.43904 -111.99556 1125 ft 4 kts 90°
2026-04-26 03:04 33.43887 -111.99533 1119 ft 5 kts 167°
2026-04-26 03:04 33.43846 -111.99530 1120 ft 7 kts 179°
2026-04-26 03:04 33.43795 -111.99529 1121 ft 2 kts 179°
2026-04-26 03:04 33.43776 -111.99527 1117 ft 1 kts 160°
2026-04-26 03:05 33.43771 -111.99518 1118 ft 2 kts 120°
2026-04-26 03:05 33.43763 -111.99491 1122 ft 4 kts 106°
2026-04-26 03:13 33.43763 -111.99490 1124 ft 0 kts 106°